ANZ361 YMML-YSSY

Flight info

Callsign ANZ361
Flight time 1h 4m
Altitude 35000
Route DOSEL Y59 RIVET
Aircraft B738/M-VGDW/C

Departure

Time 2026-04-20 06:39
Airport Melbourne Airport (YMML)

Arrival

Time 2026-04-20 07:43
Airport Sydney Kingsford Smith International Airport (YSSY)
Time Latitude Longitude Altitude Speed Heading
2026-04-20 06:11 -37.67125 144.84634 396 ft 0 kts 352°
2026-04-20 06:23 -37.67128 144.84636 396 ft 2 kts 352°
2026-04-20 06:23 -37.67143 144.84637 396 ft 2 kts 351°
2026-04-20 06:23 -37.67158 144.84641 396 ft 2 kts 352°
2026-04-20 06:24 -37.67171 144.84644 396 ft 0 kts 351°
2026-04-20 06:24 -37.67182 144.84647 395 ft 2 kts 326°
2026-04-20 06:24 -37.67193 144.84660 395 ft 2 kts 293°
2026-04-20 06:24 -37.67195 144.84677 396 ft 0 kts 264°
2026-04-20 06:25 -37.67194 144.84685 396 ft 1 kts 260°
2026-04-20 06:25 -37.67194 144.84686 396 ft 0 kts 261°
2026-04-20 06:28 -37.67196 144.84670 396 ft 5 kts 261°
2026-04-20 06:28 -37.67212 144.84552 391 ft 17 kts 262°
2026-04-20 06:28 -37.67203 144.84383 384 ft 20 kts 266°
2026-04-20 06:29 -37.67133 144.84256 384 ft 19 kts 350°
2026-04-20 06:29 -37.67007 144.84232 387 ft 17 kts 353°
2026-04-20 06:29 -37.66885 144.84209 389 ft 19 kts 350°
2026-04-20 06:29 -37.66752 144.84184 392 ft 19 kts 352°
2026-04-20 06:30 -37.66605 144.84158 396 ft 20 kts 352°
2026-04-20 06:30 -37.66471 144.84132 402 ft 20 kts 351°
2026-04-20 06:30 -37.66342 144.84109 409 ft 16 kts 352°
2026-04-20 06:30 -37.66309 144.84103 411 ft 0 kts 351°
2026-04-20 06:32 -37.66302 144.84102 411 ft 5 kts 351°
2026-04-20 06:32 -37.66199 144.84082 415 ft 19 kts 352°
2026-04-20 06:32 -37.66071 144.84056 418 ft 17 kts 352°
2026-04-20 06:33 -37.65949 144.84038 421 ft 21 kts 350°
2026-04-20 06:33 -37.65792 144.84006 423 ft 21 kts 352°
2026-04-20 06:33 -37.65651 144.83980 427 ft 19 kts 352°
2026-04-20 06:33 -37.65520 144.83952 428 ft 20 kts 348°
2026-04-20 06:34 -37.65379 144.83913 430 ft 19 kts 345°
2026-04-20 06:34 -37.65298 144.83804 434 ft 15 kts 278°
2026-04-20 06:34 -37.65311 144.83652 440 ft 0 kts 260°
2026-04-20 06:37 -37.65311 144.83647 440 ft 4 kts 260°
2026-04-20 06:38 -37.65328 144.83537 442 ft 14 kts 246°
2026-04-20 06:38 -37.65418 144.83508 440 ft 15 kts 171°
2026-04-20 06:38 -37.65591 144.83542 435 ft 53 kts 172°
2026-04-20 06:38 -37.66267 144.83667 416 ft 137 kts 171°
2026-04-20 06:39 -37.67383 144.83884 767 ft 173 kts 170°
2026-04-20 06:39 -37.68515 144.84105 1861 ft 166 kts 172°
2026-04-20 06:39 -37.69737 144.84302 2409 ft 186 kts 172°
2026-04-20 06:39 -37.71095 144.84541 2861 ft 211 kts 171°
2026-04-20 06:40 -37.72644 144.84833 3448 ft 232 kts 172°
2026-04-20 06:40 -37.74295 144.84958 4154 ft 245 kts 188°
2026-04-20 06:40 -37.75910 144.84164 4798 ft 258 kts 219°
2026-04-20 06:40 -37.77052 144.82399 5613 ft 263 kts 246°
2026-04-20 06:41 -37.77500 144.80179 6487 ft 265 kts 269°
2026-04-20 06:41 -37.77217 144.77876 7316 ft 270 kts 290°
2026-04-20 06:41 -37.76360 144.75735 8164 ft 275 kts 303°
2026-04-20 06:41 -37.74997 144.74028 8971 ft 282 kts 327°
2026-04-20 06:42 -37.73177 144.73073 9759 ft 290 kts 346°
2026-04-20 06:42 -37.71135 144.72810 10422 ft 301 kts 360°
2026-04-20 06:42 -37.69022 144.73160 10968 ft 317 kts 13°
2026-04-20 06:42 -37.66884 144.74135 11621 ft 327 kts 22°
2026-04-20 06:43 -37.64705 144.75368 11931 ft 348 kts 22°
2026-04-20 06:43 -37.62447 144.76601 12404 ft 364 kts 21°
2026-04-20 06:43 -37.60091 144.77861 13112 ft 372 kts 21°
2026-04-20 06:43 -37.57685 144.79152 13833 ft 378 kts 22°
2026-04-20 06:44 -37.55332 144.80708 14605 ft 384 kts 30°
2026-04-20 06:44 -37.53099 144.82582 15417 ft 387 kts 35°
2026-04-20 06:44 -37.50946 144.84593 16131 ft 393 kts 37°
2026-04-20 06:44 -37.48756 144.86708 16868 ft 397 kts 38°
2026-04-20 06:45 -37.46569 144.88829 17560 ft 402 kts 39°
2026-04-20 06:45 -37.44454 144.91167 18232 ft 406 kts 46°
2026-04-20 06:45 -37.42536 144.93796 18901 ft 410 kts 51°
2026-04-20 06:45 -37.40765 144.96596 19585 ft 412 kts 54°
2026-04-20 06:46 -37.39075 144.99487 20229 ft 416 kts 56°
2026-04-20 06:46 -37.37385 145.02490 20869 ft 420 kts 57°
2026-04-20 06:46 -37.35714 145.05498 21489 ft 424 kts 57°
2026-04-20 06:46 -37.34033 145.08527 22074 ft 428 kts 57°
2026-04-20 06:47 -37.32329 145.11586 22666 ft 431 kts 57°
2026-04-20 06:47 -37.30582 145.14705 23271 ft 435 kts 57°
2026-04-20 06:47 -37.28851 145.17783 23815 ft 439 kts 57°
2026-04-20 06:47 -37.27083 145.20915 24332 ft 444 kts 57°
2026-04-20 06:48 -37.25300 145.24063 24868 ft 448 kts 57°
2026-04-20 06:48 -37.23476 145.27277 25373 ft 452 kts 57°
2026-04-20 06:48 -37.21655 145.30476 25879 ft 456 kts 57°
2026-04-20 06:48 -37.19806 145.33722 26423 ft 458 kts 57°
2026-04-20 06:49 -37.17955 145.36966 26888 ft 463 kts 57°
2026-04-20 06:49 -37.16077 145.40254 27351 ft 467 kts 57°
2026-04-20 06:49 -37.14170 145.43587 27823 ft 470 kts 57°
2026-04-20 06:49 -37.12252 145.46931 28265 ft 474 kts 57°
2026-04-20 06:50 -37.10326 145.50290 28735 ft 477 kts 57°
2026-04-20 06:50 -37.08401 145.53641 29145 ft 481 kts 57°
2026-04-20 06:50 -37.06430 145.57068 29546 ft 486 kts 57°
2026-04-20 06:50 -37.04467 145.60480 29962 ft 489 kts 57°
2026-04-20 06:51 -37.02455 145.63968 30579 ft 488 kts 57°
2026-04-20 06:51 -37.00500 145.67354 31317 ft 483 kts 57°
2026-04-20 06:51 -36.98547 145.70732 31869 ft 482 kts 57°
2026-04-20 06:51 -36.96579 145.74135 32423 ft 481 kts 57°
2026-04-20 06:52 -36.94617 145.77525 32935 ft 481 kts 57°
2026-04-20 06:52 -36.92676 145.80878 33450 ft 479 kts 57°
2026-04-20 06:52 -36.90726 145.84242 33950 ft 478 kts 57°
2026-04-20 06:52 -36.88763 145.87625 34455 ft 478 kts 57°
2026-04-20 06:53 -36.86825 145.90964 34922 ft 477 kts 57°
2026-04-20 06:53 -36.84861 145.94347 35254 ft 479 kts 57°
2026-04-20 06:53 -36.82917 145.97694 35253 ft 486 kts 57°
2026-04-20 06:54 -36.78877 146.04640 35261 ft 499 kts 57°
2026-04-20 06:54 -36.74813 146.11595 35263 ft 496 kts 58°
2026-04-20 06:55 -36.70738 146.18549 35265 ft 496 kts 58°
2026-04-20 06:55 -36.66665 146.25491 35264 ft 496 kts 58°
2026-04-20 06:56 -36.62612 146.32387 35261 ft 496 kts 58°
2026-04-20 06:56 -36.58545 146.39294 35253 ft 497 kts 58°
2026-04-20 06:57 -36.54460 146.46220 35249 ft 496 kts 58°
2026-04-20 06:57 -36.50361 146.53155 35248 ft 498 kts 58°
2026-04-20 06:58 -36.46285 146.60036 35258 ft 497 kts 58°
2026-04-20 06:58 -36.42171 146.66965 35267 ft 497 kts 57°
2026-04-20 06:59 -36.38077 146.73850 35275 ft 497 kts 57°
2026-04-20 06:59 -36.33950 146.80772 35278 ft 497 kts 58°
2026-04-20 07:00 -36.29837 146.87660 35272 ft 497 kts 58°
2026-04-20 07:00 -36.25738 146.94511 35264 ft 496 kts 58°
2026-04-20 07:01 -36.21642 147.01341 35256 ft 496 kts 58°
2026-04-20 07:01 -36.17508 147.08220 35260 ft 496 kts 58°
2026-04-20 07:02 -36.13369 147.15096 35255 ft 496 kts 58°
2026-04-20 07:02 -36.09255 147.21913 35257 ft 496 kts 58°
2026-04-20 07:03 -36.05133 147.28731 35254 ft 496 kts 58°
2026-04-20 07:03 -36.01004 147.35551 35251 ft 497 kts 58°
2026-04-20 07:04 -35.96856 147.42384 35251 ft 496 kts 58°
2026-04-20 07:04 -35.92724 147.49182 35249 ft 497 kts 59°
2026-04-20 07:05 -35.88584 147.55977 35249 ft 496 kts 59°
2026-04-20 07:05 -35.84444 147.62758 35253 ft 496 kts 58°
2026-04-20 07:06 -35.80277 147.69571 35254 ft 496 kts 58°
2026-04-20 07:06 -35.76144 147.76314 35258 ft 495 kts 58°
2026-04-20 07:07 -35.71970 147.83112 35254 ft 495 kts 58°
2026-04-20 07:07 -35.67815 147.89864 35254 ft 495 kts 58°
2026-04-20 07:08 -35.63691 147.96552 35247 ft 495 kts 58°
2026-04-20 07:08 -35.59506 148.03331 35245 ft 497 kts 58°
2026-04-20 07:09 -35.55319 148.10095 35253 ft 496 kts 58°
2026-04-20 07:09 -35.51159 148.16801 35253 ft 494 kts 58°
2026-04-20 07:10 -35.46973 148.23538 35249 ft 495 kts 58°
2026-04-20 07:10 -35.42801 148.30240 35257 ft 495 kts 59°
2026-04-20 07:11 -35.38646 148.36905 35276 ft 495 kts 59°
2026-04-20 07:11 -35.34452 148.43616 35283 ft 496 kts 59°
2026-04-20 07:12 -35.30246 148.50333 35290 ft 496 kts 59°
2026-04-20 07:12 -35.26082 148.56967 35290 ft 494 kts 59°
2026-04-20 07:13 -35.21867 148.63675 35285 ft 495 kts 59°
2026-04-20 07:13 -35.17682 148.70322 35284 ft 496 kts 58°
2026-04-20 07:14 -35.13451 148.77028 35282 ft 495 kts 58°
2026-04-20 07:14 -35.09254 148.83667 35273 ft 494 kts 58°
2026-04-20 07:15 -35.05043 148.90318 35273 ft 496 kts 59°
2026-04-20 07:15 -35.00851 148.96921 35268 ft 494 kts 58°
2026-04-20 07:16 -34.96615 149.03584 35275 ft 493 kts 59°
2026-04-20 07:16 -34.92385 149.10228 35268 ft 496 kts 58°
2026-04-20 07:17 -34.88168 149.16836 35270 ft 493 kts 59°
2026-04-20 07:17 -34.83947 149.23441 35269 ft 497 kts 58°
2026-04-20 07:18 -34.79678 149.30104 35268 ft 495 kts 58°
2026-04-20 07:18 -34.75471 149.36713 35268 ft 491 kts 60°
2026-04-20 07:18 -34.73556 149.40128 35083 ft 478 kts 65°
2026-04-20 07:19 -34.71864 149.43535 34630 ft 468 kts 68°
2026-04-20 07:19 -34.70307 149.46938 34030 ft 464 kts 69°
2026-04-20 07:19 -34.68800 149.50391 33334 ft 463 kts 70°
2026-04-20 07:19 -34.67312 149.53879 32611 ft 463 kts 70°
2026-04-20 07:20 -34.65839 149.57341 32321 ft 458 kts 70°
2026-04-20 07:20 -34.64381 149.60768 32072 ft 467 kts 70°
2026-04-20 07:20 -34.62865 149.64317 31807 ft 471 kts 69°
2026-04-20 07:20 -34.61357 149.67822 31540 ft 470 kts 69°
2026-04-20 07:21 -34.59836 149.71327 30894 ft 471 kts 68°
2026-04-20 07:21 -34.58299 149.74855 30070 ft 473 kts 68°
2026-04-20 07:21 -34.56777 149.78331 29392 ft 471 kts 68°
2026-04-20 07:21 -34.55233 149.81844 28747 ft 468 kts 68°
2026-04-20 07:22 -34.53723 149.85271 28106 ft 465 kts 67°
2026-04-20 07:22 -34.52190 149.88742 27454 ft 462 kts 67°
2026-04-20 07:22 -34.50688 149.92142 26790 ft 460 kts 67°
2026-04-20 07:22 -34.49171 149.95572 26115 ft 458 kts 66°
2026-04-20 07:23 -34.47668 149.98969 25442 ft 455 kts 66°
2026-04-20 07:23 -34.46178 150.02331 24770 ft 453 kts 66°
2026-04-20 07:23 -34.44707 150.05650 24096 ft 450 kts 66°
2026-04-20 07:23 -34.43243 150.08951 23419 ft 447 kts 66°
2026-04-20 07:24 -34.41767 150.12276 22740 ft 445 kts 66°
2026-04-20 07:24 -34.40320 150.15530 22072 ft 442 kts 66°
2026-04-20 07:24 -34.38863 150.18805 21398 ft 439 kts 66°
2026-04-20 07:24 -34.37418 150.22051 20732 ft 436 kts 66°
2026-04-20 07:25 -34.35997 150.25236 20065 ft 433 kts 66°
2026-04-20 07:25 -34.34586 150.28400 19391 ft 425 kts 65°
2026-04-20 07:25 -34.33193 150.31516 18746 ft 417 kts 65°
2026-04-20 07:25 -34.31838 150.34547 18107 ft 409 kts 66°
2026-04-20 07:26 -34.30498 150.37544 17452 ft 402 kts 66°
2026-04-20 07:26 -34.29179 150.40494 16807 ft 396 kts 65°
2026-04-20 07:26 -34.27883 150.43391 16176 ft 389 kts 65°
2026-04-20 07:26 -34.26623 150.46210 15567 ft 382 kts 65°
2026-04-20 07:27 -34.25368 150.49023 14952 ft 376 kts 65°
2026-04-20 07:27 -34.24133 150.51790 14344 ft 370 kts 65°
2026-04-20 07:27 -34.22929 150.54485 13746 ft 364 kts 65°
2026-04-20 07:27 -34.21732 150.57161 13159 ft 359 kts 65°
2026-04-20 07:28 -34.20574 150.59747 12582 ft 353 kts 65°
2026-04-20 07:28 -34.19395 150.62375 11998 ft 348 kts 65°
2026-04-20 07:28 -34.18256 150.64912 11436 ft 344 kts 65°
2026-04-20 07:28 -34.17123 150.67436 10930 ft 338 kts 65°
2026-04-20 07:29 -34.16024 150.69878 10502 ft 330 kts 65°
2026-04-20 07:29 -34.14947 150.72264 10352 ft 313 kts 65°
2026-04-20 07:29 -34.13940 150.74493 10210 ft 298 kts 65°
2026-04-20 07:29 -34.12965 150.76654 10006 ft 287 kts 65°
2026-04-20 07:30 -34.12028 150.78742 9669 ft 282 kts 66°
2026-04-20 07:30 -34.11103 150.80803 9292 ft 279 kts 65°
2026-04-20 07:30 -34.10179 150.82858 8996 ft 275 kts 65°
2026-04-20 07:30 -34.09276 150.84866 9002 ft 270 kts 66°
2026-04-20 07:31 -34.08398 150.86813 8974 ft 255 kts 66°
2026-04-20 07:31 -34.07548 150.88701 8977 ft 257 kts 66°
2026-04-20 07:31 -34.06657 150.90704 8858 ft 279 kts 65°
2026-04-20 07:31 -34.05735 150.92764 8616 ft 283 kts 65°
2026-04-20 07:32 -34.04794 150.94844 8314 ft 280 kts 65°
2026-04-20 07:32 -34.03857 150.96907 8023 ft 278 kts 65°
2026-04-20 07:32 -34.02935 150.98941 7709 ft 278 kts 65°
2026-04-20 07:32 -34.01892 151.00925 7341 ft 279 kts 52°
2026-04-20 07:33 -34.00310 151.02303 6957 ft 281 kts 24°
2026-04-20 07:33 -33.98426 151.02713 6600 ft 278 kts 359°
2026-04-20 07:33 -33.96487 151.02531 6301 ft 272 kts 353°
2026-04-20 07:33 -33.94639 151.02280 6022 ft 267 kts 353°
2026-04-20 07:34 -33.92818 151.02026 5924 ft 259 kts 353°
2026-04-20 07:34 -33.90999 151.01775 5686 ft 260 kts 353°
2026-04-20 07:34 -33.89216 151.01527 5440 ft 256 kts 353°
2026-04-20 07:35 -33.85683 151.01012 4950 ft 254 kts 353°
2026-04-20 07:35 -33.83918 151.00743 4707 ft 253 kts 353°
2026-04-20 07:35 -33.82177 151.00470 4460 ft 253 kts 353°
2026-04-20 07:35 -33.80434 151.00188 4212 ft 252 kts 353°
2026-04-20 07:36 -33.78689 150.99902 3991 ft 249 kts 353°
2026-04-20 07:36 -33.76953 150.99638 3958 ft 250 kts 358°
2026-04-20 07:36 -33.75232 150.99991 3960 ft 247 kts 28°
2026-04-20 07:36 -33.73928 151.01256 3959 ft 238 kts 59°
2026-04-20 07:37 -33.73301 151.03024 3964 ft 231 kts 81°
2026-04-20 07:37 -33.72944 151.04907 3959 ft 231 kts 83°
2026-04-20 07:37 -33.72605 151.06799 3960 ft 230 kts 83°
2026-04-20 07:37 -33.72342 151.08673 3957 ft 226 kts 94°
2026-04-20 07:38 -33.72731 151.10461 3960 ft 216 kts 126°
2026-04-20 07:38 -33.73723 151.11682 3911 ft 197 kts 146°
2026-04-20 07:38 -33.74935 151.12411 3667 ft 191 kts 161°
2026-04-20 07:38 -33.76205 151.12834 3401 ft 187 kts 166°
2026-04-20 07:39 -33.77470 151.13173 3143 ft 184 kts 166°
2026-04-20 07:39 -33.78716 151.13496 2891 ft 181 kts 167°
2026-04-20 07:39 -33.79955 151.13818 2638 ft 177 kts 167°
2026-04-20 07:39 -33.81151 151.14125 2397 ft 175 kts 167°
2026-04-20 07:40 -33.82336 151.14429 2167 ft 171 kts 167°
2026-04-20 07:40 -33.83491 151.14726 1927 ft 169 kts 167°
2026-04-20 07:40 -33.84644 151.15024 1692 ft 163 kts 167°
2026-04-20 07:40 -33.85701 151.15297 1480 ft 149 kts 167°
2026-04-20 07:41 -33.86660 151.15544 1339 ft 135 kts 168°
2026-04-20 07:41 -33.87582 151.15781 1102 ft 132 kts 168°
2026-04-20 07:41 -33.88481 151.16014 949 ft 133 kts 168°
2026-04-20 07:41 -33.89398 151.16251 806 ft 132 kts 169°
2026-04-20 07:42 -33.90305 151.16487 649 ft 134 kts 168°
2026-04-20 07:42 -33.91215 151.16744 490 ft 133 kts 168°
2026-04-20 07:42 -33.92135 151.16959 318 ft 130 kts 171°
2026-04-20 07:42 -33.93026 151.17184 71 ft 131 kts 171°
2026-04-20 07:43 -33.93852 151.17395 11 ft 89 kts 167°
2026-04-20 07:43 -33.94255 151.17513 18 ft 41 kts 161°
2026-04-20 07:43 -33.94445 151.17642 23 ft 14 kts 142°
2026-04-20 07:43 -33.94468 151.17665 23 ft 0 kts 142°
2026-04-20 07:44 -33.94506 151.17702 24 ft 14 kts 133°
2026-04-20 07:44 -33.94517 151.17738 24 ft 0 kts 83°
2026-04-20 07:44 -33.94517 151.17740 24 ft 0 kts 83°
2026-04-20 07:44 -33.94515 151.17750 24 ft 0 kts 79°
2026-04-20 07:45 -33.94509 151.17764 25 ft 8 kts 47°
2026-04-20 07:45 -33.94413 151.17763 21 ft 16 kts 346°
2026-04-20 07:45 -33.94299 151.17726 18 ft 17 kts 347°
2026-04-20 07:46 -33.94176 151.17686 15 ft 19 kts 347°
2026-04-20 07:46 -33.94034 151.17647 10 ft 22 kts 346°
2026-04-20 07:46 -33.93884 151.17635 8 ft 21 kts 46°
2026-04-20 07:46 -33.93835 151.17804 8 ft 21 kts 75°
2026-04-20 07:47 -33.93799 151.17960 14 ft 16 kts 74°
2026-04-20 07:47 -33.93755 151.18066 18 ft 12 kts 19°
2026-04-20 07:47 -33.93669 151.18057 19 ft 11 kts 356°
2026-04-20 07:47 -33.93607 151.18028 20 ft 9 kts 292°
2026-04-20 07:48 -33.93600 151.17993 19 ft 3 kts 281°
2026-04-20 07:48 -33.93599 151.17987 19 ft 0 kts 279°